NOAA 16 DEB, 42335

Orbit data source: Space-Track

NOAA 16 DEB, 42335 is space debris in SSO originally from a launch on Thu, 21 Sep 2000 UTC launched from the Air Force Western Test Range (AFWTR). Debris objects in space refer to the collection of defunct objects orbiting the Earth. Examples of debris include non-operational satellites, rocket bodies, and fragments generated from explosions, collisions, or faulty payload assembly.

Loading next visibility...
Identifier
42335, 2000-055QB
Orbit
SSO
Country
Flag of USUS
Related business
Manufacturer
Unknown
Mission
Spacecraft
Bus & Motor
Unknown
Mass
Unknown
Launch date (UTC)
2000-09-21 (26 years ago)
Launch vehicle
Unknown
Launch site
Air Force Western Test Range (AFWTR)
Object type
Payload
Rocket body
Debris
Shape & HBR
Unknown shape, 0.1 m
Radar Cross Section
Small (<0.1 m²)

Expand to show TLE details & history
Last TLE update: 2 days ago

TLE from 2 days ago
0 NOAA 16 DEB
1 42335U 00055QB  26118.61728095  .00004061  00000-0  14162-2 0  9990
2 42335  98.5588 177.8930 0021790 344.2571  15.7934 14.35733585526097
Epoch: 2026-04-28T14:48Z
TLE epoch observation values (Epoch: 2026-04-28T14:48:53.074Z)
Latitude
-0.00007°
Longitude
99.08185°
Altitude
760.577 km
Speed
7.482 km/s
True Right ascension
11h 51m 34s
True Declination
0° 00' 00"
Sunlit
Object was in full shadow at epoch
Visualization orbit readout
Latitude
Unknown
Longitude
Unknown
Altitude
Unknown
Speed
Unknown
Apparent Right ascension
Unknown
Apparent Declination
Unknown
Sunlit
N/A
Visualization observer readout
Local Sidereal Time
06:44:41
Azimuth
Unknown
Elevation
Unknown
Doppler factor
Unknown
Orbital elements
Apogee altitude
785.335 km
Perigee altitude
754.185 km
Semi-major axis
7,147.897 km
Eccentricity
0.00218
Inclination
98.5588°
RAAN
177.893°
Arg. of periapsis
344.2571°
True anomaly
15.86154°
Mean anomaly
15.7934°
Eccentric anomaly
15.82745°
Mean motion
3.5915 °/min
Orbital period
100.24 mins
BSTAR
0.0014162
Loading maneuver chart data...
Computing Atmospheric mass density...
Loading historical data...
Loading historical data...
Loading historical data...
Loading historical data...
Loading historical data...
Loading historical data...
Loading historical data...

Documentation

Showing up to 5 results
|